STARLINK-2273, 47993

Orbit data source: Space-Track

STARLINK-2273, 47993 is a payload satellite owned by SpaceX/Seattle (US) in LEO that was launched on Wed, 24 Mar 2021 UTC via an FALCON 9 launch vehicle from the Air Force Eastern Test Range (AFETR). Payload-class satellites include a variety of spacecraft equipped with specific instruments for various scientific and technological missions. These include communications satellites like Starlink; space stations such as the ISS; scientific satellites like the Hubble; Earth observation satellites from companies like Planet Labs, Umbra, and HawkEye 360; GPS; miniature CubeSats for education and research; and military/defense satellites.

Loading next visibility...
Identifier
47993, 2021-024S
Orbit
LEO
Country
Flag of USUS
Related business
Manufacturer
SpaceX/Seattle
Mission
Operational Commercial Communications
Bus & Motor
STARLINK, Unknown motor
Mass
260 kg wet, ~248 kg dry
Launch date (UTC)
2021-03-24 (5 years ago)
Launch vehicle
FALCON 9
Launch site
Air Force Eastern Test Range (AFETR)
Object type
Payload
Rocket body
Debris
Shape & HBR
Box + 1 Pan, 10.1 m
Radar Cross Section
13.562 m², Large (>1 m²)

Expand to show TLE details & history
Last TLE update: 12 hours ago

TLE from 12 hours ago
0 STARLINK-2273
1 47993U 21024S   25346.94622881  .00004480  00000-0  31944-3 0  9991
2 47993  53.0559 326.0260 0001320  96.2554 263.8586 15.06401781262042
Epoch: 2025-12-12T22:42Z
TLE epoch observation values (Epoch: 2025-12-12T22:42:34.169Z)
Latitude
0.00004°
Longitude
-96.4969°
Altitude
548.183 km
Speed
7.589 km/s
True Right ascension
21h 44m 06s
True Declination
0° 00' 00"
Sunlit
Object was in daylight at epoch
Visualization orbit readout
Latitude
Unknown
Longitude
Unknown
Altitude
Unknown
Speed
Unknown
Apparent Right ascension
Unknown
Apparent Declination
Unknown
Sunlit
N/A
Visualization observer readout
Local Sidereal Time
09:19:33
Azimuth
Unknown
Elevation
Unknown
Doppler factor
Unknown
Orbital elements
Apogee altitude
548.391 km
Perigee altitude
546.562 km
Semi-major axis
6,925.614 km
Eccentricity
0.00013
Inclination
53.0559°
RAAN
326.026°
Arg. of periapsis
96.2554°
True anomaly
263.84356°
Mean anomaly
263.8586°
Eccentric anomaly
263.85108°
Mean motion
3.76579 °/min
Orbital period
95.6 mins
BSTAR
0.00031944
Loading maneuver chart data...
Computing Atmospheric mass density...

Documentation

Showing up to 5 results
|